Time,TemperatureF,DewpointF,PressureIn,WindDirection,WindDirectionDegrees,WindSpeedMPH,WindSpeedGustMPH,Humidity,HourlyPrecipIn,Conditions,Clouds,dailyrainin,SoftwareType,DateUTC
2013-03-10 00:00:00,41.8,29.7,30.10,South,180,0.0,0.4,62,0.00,,,0.00,WUHU216HW,2013-03-10 05:00:00,
2013-03-10 00:05:00,41.8,30.4,30.10,SSE,158,1.1,1.1,64,0.00,,,0.00,WUHU216HW,2013-03-10 05:05:00,
2013-03-10 00:10:00,41.8,30.9,30.10,SSE,158,0.4,1.1,65,0.00,,,0.00,WUHU216HW,2013-03-10 05:10:00,
2013-03-10 00:15:00,41.6,31.1,30.09,ESE,113,1.1,1.1,66,0.00,,,0.00,WUHU216HW,2013-03-10 05:15:00,
2013-03-10 00:20:00,41.4,31.2,30.09,ESE,113,0.9,1.3,67,0.00,,,0.00,WUHU216HW,2013-03-10 05:20:00,
2013-03-10 00:25:00,41.4,30.9,30.09,ESE,113,0.2,1.3,66,0.00,,,0.00,WUHU216HW,2013-03-10 05:25:00,
2013-03-10 00:30:00,41.4,30.5,30.10,SSW,203,0.7,1.3,65,0.00,,,0.00,WUHU216HW,2013-03-10 05:30:00,
2013-03-10 00:35:00,41.0,30.2,30.10,SSW,203,0.4,1.3,65,0.00,,,0.00,WUHU216HW,2013-03-10 05:35:00,
2013-03-10 00:40:00,40.7,29.8,30.10,SSW,203,0.4,1.1,65,0.00,,,0.00,WUHU216HW,2013-03-10 05:40:00,
2013-03-10 00:45:00,40.3,29.4,30.10,SSW,203,0.4,0.4,65,0.00,,,0.00,WUHU216HW,2013-03-10 05:45:00,
2013-03-10 00:50:00,40.0,29.4,30.10,SSW,203,0.4,0.9,66,0.00,,,0.00,WUHU216HW,2013-03-10 05:50:00,
2013-03-10 00:55:00,40.0,29.8,30.11,SSW,203,0.0,0.9,67,0.00,,,0.00,WUHU216HW,2013-03-10 05:55:00,
2013-03-10 01:00:00,39.8,29.6,30.11,SSW,203,0.0,0.4,67,0.00,,,0.00,WUHU216HW,2013-03-10 06:00:00,
2013-03-10 01:05:00,39.6,29.9,30.11,SSW,203,0.0,0.9,68,0.00,,,0.00,WUHU216HW,2013-03-10 06:05:00,
2013-03-10 01:10:00,39.6,29.9,30.11,SSW,203,0.0,0.9,68,0.00,,,0.00,WUHU216HW,2013-03-10 06:10:00,
2013-03-10 01:16:00,39.6,30.3,30.10,SSW,203,0.4,0.4,69,0.00,,,0.00,WUHU216HW,2013-03-10 06:16:00,
2013-03-10 01:21:00,39.2,30.2,30.10,SSW,203,0.0,0.4,70,0.00,,,0.00,WUHU216HW,2013-03-10 06:21:00,
2013-03-10 01:26:00,39.2,30.2,30.10,SSW,203,0.0,0.4,70,0.00,,,0.00,WUHU216HW,2013-03-10 06:26:00,
2013-03-10 01:31:00,39.1,29.7,30.10,SSW,203,0.0,0.0,69,0.00,,,0.00,WUHU216HW,2013-03-10 06:31:00,
2013-03-10 01:36:00,38.7,29.3,30.11,SSW,203,0.0,0.4,69,0.00,,,0.00,WUHU216HW,2013-03-10 06:36:00,
2013-03-10 01:41:00,38.5,29.6,30.11,SSW,203,0.0,0.4,70,0.00,,,0.00,WUHU216HW,2013-03-10 06:41:00,
2013-03-10 01:46:00,38.3,29.4,30.10,SSW,203,0.4,0.4,70,0.00,,,0.00,WUHU216HW,2013-03-10 06:46:00,
2013-03-10 01:51:00,38.2,29.6,30.11,SSW,203,0.0,0.4,71,0.00,,,0.00,WUHU216HW,2013-03-10 06:51:00,
2013-03-10 01:56:00,37.8,29.3,30.10,SSW,203,0.4,0.4,71,0.00,,,0.00,WUHU216HW,2013-03-10 06:56:00,
2013-03-10 03:01:00,37.8,29.3,30.10,SSW,203,0.0,0.4,71,0.00,,,0.00,WUHU216HW,2013-03-10 07:01:00,
2013-03-10 03:06:00,37.6,29.1,30.10,SSW,203,0.0,0.4,71,0.00,,,0.00,WUHU216HW,2013-03-10 07:06:00,
2013-03-10 03:11:00,37.4,29.0,30.09,SSW,203,0.0,0.0,71,0.00,,,0.00,WUHU216HW,2013-03-10 07:11:00,
2013-03-10 03:16:00,37.4,29.3,30.10,SSW,203,0.2,0.4,72,0.00,,,0.00,WUHU216HW,2013-03-10 07:16:00,
2013-03-10 03:21:00,37.3,29.1,30.09,SSW,203,0.0,0.4,72,0.00,,,0.00,WUHU216HW,2013-03-10 07:21:00,
2013-03-10 03:26:00,37.1,28.9,30.10,SSW,203,0.0,0.2,72,0.00,,,0.00,WUHU216HW,2013-03-10 07:26:00,
2013-03-10 03:31:00,36.9,29.1,30.09,SSW,203,0.0,0.2,73,0.00,,,0.00,WUHU216HW,2013-03-10 07:31:00,
2013-03-10 03:36:00,36.9,29.3,30.09,SSW,203,0.0,0.4,74,0.00,,,0.00,WUHU216HW,2013-03-10 07:36:00,
2013-03-10 03:41:00,36.7,29.2,30.10,SSW,203,0.0,0.4,74,0.00,,,0.00,WUHU216HW,2013-03-10 07:41:00,
2013-03-10 03:46:00,36.9,29.3,30.10,South,180,0.0,0.4,74,0.00,,,0.00,WUHU216HW,2013-03-10 07:46:00,
2013-03-10 03:51:00,36.7,29.2,30.09,South,180,0.0,0.4,74,0.00,,,0.00,WUHU216HW,2013-03-10 07:51:00,
2013-03-10 03:56:00,36.7,29.5,30.09,South,180,0.0,0.2,75,0.00,,,0.00,WUHU216HW,2013-03-10 07:56:00,
2013-03-10 04:01:00,36.7,29.5,30.09,South,180,0.0,0.2,75,0.00,,,0.00,WUHU216HW,2013-03-10 08:01:00,
2013-03-10 04:06:00,36.7,29.5,30.09,SSW,203,0.9,0.9,75,0.00,,,0.00,WUHU216HW,2013-03-10 08:06:00,
2013-03-10 04:11:00,36.7,29.2,30.09,SSW,203,0.4,0.9,74,0.00,,,0.00,WUHU216HW,2013-03-10 08:11:00,
2013-03-10 04:16:00,36.7,29.2,30.09,SSW,203,0.0,1.1,74,0.00,,,0.00,WUHU216HW,2013-03-10 08:16:00,
2013-03-10 04:21:00,36.5,29.0,30.09,SSW,203,0.0,1.1,74,0.00,,,0.00,WUHU216HW,2013-03-10 08:21:00,
2013-03-10 04:26:00,36.4,28.5,30.09,SSW,203,0.2,0.7,73,0.00,,,0.00,WUHU216HW,2013-03-10 08:26:00,
2013-03-10 04:31:00,36.2,28.4,30.09,SSW,203,0.4,0.7,73,0.00,,,0.00,WUHU216HW,2013-03-10 08:31:00,
2013-03-10 04:36:00,36.0,28.4,30.09,SSW,203,0.2,0.9,74,0.00,,,0.00,WUHU216HW,2013-03-10 08:36:00,
2013-03-10 04:41:00,35.8,28.6,30.08,SSW,203,0.0,0.9,75,0.00,,,0.00,WUHU216HW,2013-03-10 08:41:00,
2013-03-10 04:46:00,35.8,28.6,30.08,SSW,203,0.0,0.2,75,0.00,,,0.00,WUHU216HW,2013-03-10 08:46:00,
2013-03-10 04:51:00,35.8,28.6,30.08,SSW,203,0.0,0.4,75,0.00,,,0.00,WUHU216HW,2013-03-10 08:51:00,
2013-03-10 04:56:00,35.8,29.0,30.09,SSW,203,0.2,0.4,76,0.00,,,0.00,WUHU216HW,2013-03-10 08:56:00,
2013-03-10 05:01:00,36.0,29.2,30.09,SSW,203,0.0,0.4,76,0.00,,,0.00,WUHU216HW,2013-03-10 09:01:00,
2013-03-10 05:06:00,36.0,29.2,30.09,SSW,203,0.0,0.2,76,0.00,,,0.00,WUHU216HW,2013-03-10 09:06:00,
2013-03-10 05:11:00,36.0,28.8,30.09,SSW,203,0.0,0.0,75,0.00,,,0.00,WUHU216HW,2013-03-10 09:11:00,
2013-03-10 05:16:00,36.0,29.2,30.08,SSW,203,0.0,0.0,76,0.00,,,0.00,WUHU216HW,2013-03-10 09:16:00,
2013-03-10 05:21:00,36.0,29.2,30.09,SSW,203,0.0,0.0,76,0.00,,,0.00,WUHU216HW,2013-03-10 09:21:00,
2013-03-10 05:26:00,36.2,29.4,30.09,SSW,203,0.0,0.0,76,0.00,,,0.00,WUHU216HW,2013-03-10 09:26:00,
2013-03-10 05:31:00,36.4,29.5,30.08,SSW,203,0.0,0.2,76,0.00,,,0.00,WUHU216HW,2013-03-10 09:31:00,
2013-03-10 05:36:00,36.4,29.5,30.09,SSW,203,0.0,0.2,76,0.00,,,0.00,WUHU216HW,2013-03-10 09:36:00,
2013-03-10 05:41:00,36.4,29.5,30.09,SSW,203,0.0,0.2,76,0.00,,,0.00,WUHU216HW,2013-03-10 09:41:00,
2013-03-10 05:46:00,36.4,29.5,30.09,SSW,203,0.7,1.1,76,0.00,,,0.00,WUHU216HW,2013-03-10 09:46:00,
2013-03-10 05:51:00,36.5,29.7,30.09,SSW,203,0.4,1.1,76,0.00,,,0.00,WUHU216HW,2013-03-10 09:51:00,
2013-03-10 05:56:00,36.5,29.7,30.09,SSW,203,0.4,0.7,76,0.00,,,0.00,WUHU216HW,2013-03-10 09:56:00,
2013-03-10 06:01:00,36.7,30.2,30.09,SSW,203,0.9,1.1,77,0.00,,,0.00,WUHU216HW,2013-03-10 10:01:00,
2013-03-10 06:06:00,36.7,30.2,30.09,SSW,203,0.4,1.1,77,0.00,,,0.00,WUHU216HW,2013-03-10 10:06:00,
2013-03-10 06:11:00,36.9,30.3,30.09,SSW,203,0.0,0.9,77,0.00,,,0.00,WUHU216HW,2013-03-10 10:11:00,
2013-03-10 06:16:00,36.9,30.3,30.09,SSW,203,0.0,0.4,77,0.00,,,0.00,WUHU216HW,2013-03-10 10:16:00,
2013-03-10 06:21:00,36.9,30.3,30.08,SSW,203,0.0,0.4,77,0.00,,,0.00,WUHU216HW,2013-03-10 10:21:00,
2013-03-10 06:26:00,36.9,30.3,30.09,SSW,203,0.0,0.4,77,0.00,,,0.00,WUHU216HW,2013-03-10 10:26:00,
2013-03-10 06:31:00,36.9,30.3,30.09,SSW,203,0.0,0.2,77,0.00,,,0.00,WUHU216HW,2013-03-10 10:31:00,
2013-03-10 06:36:00,36.9,30.3,30.09,SSW,203,0.0,0.2,77,0.00,,,0.00,WUHU216HW,2013-03-10 10:36:00,
2013-03-10 06:41:00,37.1,30.9,30.09,SW,225,1.1,1.3,78,0.00,,,0.00,WUHU216HW,2013-03-10 10:41:00,
2013-03-10 06:46:00,37.1,30.5,30.09,SW,225,0.0,1.3,77,0.00,,,0.00,WUHU216HW,2013-03-10 10:46:00,
2013-03-10 06:51:00,36.9,30.3,30.09,SW,225,0.0,1.1,77,0.00,,,0.00,WUHU216HW,2013-03-10 10:51:00,
2013-03-10 06:56:00,37.1,30.9,30.09,SW,225,0.0,0.4,78,0.00,,,0.00,WUHU216HW,2013-03-10 10:56:00,
2013-03-10 07:01:00,37.3,31.1,30.09,SW,225,0.0,0.4,78,0.00,,,0.00,WUHU216HW,2013-03-10 11:01:00,
2013-03-10 07:06:00,37.3,31.1,30.09,SW,225,0.0,0.2,78,0.00,,,0.00,WUHU216HW,2013-03-10 11:06:00,
2013-03-10 07:11:00,37.4,30.9,30.10,SW,225,0.0,0.4,77,0.00,,,0.00,WUHU216HW,2013-03-10 11:11:00,
2013-03-10 07:16:00,37.3,30.7,30.10,SW,225,0.7,0.7,77,0.00,,,0.00,WUHU216HW,2013-03-10 11:16:00,
2013-03-10 07:21:00,37.4,30.9,30.10,WSW,248,0.9,1.1,77,0.00,,,0.00,WUHU216HW,2013-03-10 11:21:00,
2013-03-10 07:26:00,37.4,30.9,30.11,WSW,248,1.1,1.3,77,0.00,,,0.00,WUHU216HW,2013-03-10 11:26:00,
2013-03-10 07:31:00,37.4,31.2,30.11,WSW,248,0.9,1.3,78,0.00,,,0.00,WUHU216HW,2013-03-10 11:31:00,
2013-03-10 07:36:00,37.4,31.2,30.11,WSW,248,0.4,1.1,78,0.00,,,0.00,WUHU216HW,2013-03-10 11:36:00,
2013-03-10 07:41:00,37.6,31.4,30.11,WSW,248,0.2,1.1,78,0.00,,,0.00,WUHU216HW,2013-03-10 11:41:00,
2013-03-10 07:46:00,37.6,31.4,30.11,WSW,248,0.0,0.4,78,0.00,,,0.00,WUHU216HW,2013-03-10 11:46:00,
2013-03-10 07:51:00,37.8,31.6,30.11,WSW,248,0.4,0.4,78,0.00,,,0.00,WUHU216HW,2013-03-10 11:51:00,
2013-03-10 07:56:00,38.0,31.8,30.11,WSW,248,0.2,0.4,78,0.00,,,0.00,WUHU216HW,2013-03-10 11:56:00,
2013-03-10 08:01:00,38.2,32.0,30.12,WSW,248,0.4,0.4,78,0.00,,,0.00,WUHU216HW,2013-03-10 12:01:00,
2013-03-10 08:06:00,38.2,31.6,30.12,WSW,248,0.0,0.4,77,0.00,,,0.00,WUHU216HW,2013-03-10 12:06:00,
2013-03-10 08:11:00,38.2,31.6,30.13,WSW,248,0.7,0.7,77,0.00,,,0.00,WUHU216HW,2013-03-10 12:11:00,
2013-03-10 08:16:00,38.2,31.6,30.13,WSW,248,0.9,1.1,77,0.00,,,0.00,WUHU216HW,2013-03-10 12:16:00,
2013-03-10 08:21:00,38.2,31.6,30.13,WSW,248,0.4,1.1,77,0.00,,,0.00,WUHU216HW,2013-03-10 12:21:00,
2013-03-10 08:26:00,38.3,31.8,30.13,WSW,248,0.0,0.9,77,0.00,,,0.00,WUHU216HW,2013-03-10 12:26:00,
2013-03-10 08:31:00,38.5,32.3,30.13,WSW,248,0.4,0.9,78,0.00,,,0.00,WUHU216HW,2013-03-10 12:31:00,
2013-03-10 08:36:00,38.9,32.6,30.13,WSW,248,0.2,1.1,78,0.00,,,0.00,WUHU216HW,2013-03-10 12:36:00,
2013-03-10 08:41:00,39.2,32.9,30.13,WSW,248,0.0,1.1,78,0.00,,,0.00,WUHU216HW,2013-03-10 12:41:00,
2013-03-10 08:46:00,40.0,33.7,30.13,WSW,248,0.4,0.9,78,0.00,,,0.00,WUHU216HW,2013-03-10 12:46:00,
2013-03-10 08:51:00,40.3,33.7,30.13,WSW,248,0.0,0.9,77,0.00,,,0.00,WUHU216HW,2013-03-10 12:51:00,
2013-03-10 08:56:00,40.9,34.1,30.13,WSW,248,0.2,0.7,77,0.00,,,0.00,WUHU216HW,2013-03-10 12:56:00,
2013-03-10 09:01:00,41.4,34.7,30.12,NE,45,0.4,1.8,77,0.00,,,0.00,WUHU216HW,2013-03-10 13:01:00,
2013-03-10 09:06:00,41.9,35.2,30.13,NE,45,0.0,1.8,77,0.00,,,0.00,WUHU216HW,2013-03-10 13:06:00,
2013-03-10 09:11:00,42.5,35.1,30.13,NE,45,0.0,1.1,75,0.00,,,0.00,WUHU216HW,2013-03-10 13:11:00,
2013-03-10 09:16:00,43.2,35.5,30.14,NE,45,0.0,0.4,74,0.00,,,0.00,WUHU216HW,2013-03-10 13:16:00,
2013-03-10 09:21:00,43.6,35.8,30.14,NNW,338,0.4,1.1,74,0.00,,,0.00,WUHU216HW,2013-03-10 13:21:00,
2013-03-10 09:26:00,43.9,36.2,30.14,NW,315,0.9,1.1,74,0.00,,,0.00,WUHU216HW,2013-03-10 13:26:00,
2013-03-10 09:31:00,44.1,36.4,30.14,NW,315,0.4,1.1,74,0.00,,,0.00,WUHU216HW,2013-03-10 13:31:00,
2013-03-10 09:36:00,44.5,36.6,30.14,NW,315,0.4,0.9,74,0.00,,,0.00,WUHU216HW,2013-03-10 13:36:00,
2013-03-10 09:41:00,45.0,37.2,30.14,WSW,248,1.1,1.1,74,0.00,,,0.00,WUHU216HW,2013-03-10 13:41:00,
2013-03-10 09:46:00,45.2,37.0,30.14,SW,225,0.9,1.3,73,0.00,,,0.00,WUHU216HW,2013-03-10 13:46:00,
2013-03-10 09:51:00,45.5,37.4,30.14,WSW,248,1.1,1.8,73,0.00,,,0.00,WUHU216HW,2013-03-10 13:51:00,
2013-03-10 09:56:00,45.9,37.5,30.14,WSW,248,1.1,1.8,72,0.00,,,0.00,WUHU216HW,2013-03-10 13:56:00,
2013-03-10 10:01:00,46.3,37.8,30.14,SW,225,0.9,1.8,72,0.00,,,0.00,WUHU216HW,2013-03-10 14:01:00,
2013-03-10 10:06:00,46.4,37.6,30.14,WSW,248,0.9,2.0,71,0.00,,,0.00,WUHU216HW,2013-03-10 14:06:00,
2013-03-10 10:11:00,46.6,37.5,30.14,WSW,248,1.1,2.0,70,0.00,,,0.00,WUHU216HW,2013-03-10 14:11:00,
2013-03-10 10:16:00,47.0,37.7,30.14,SW,225,0.0,1.8,70,0.00,,,0.00,WUHU216HW,2013-03-10 14:16:00,
2013-03-10 10:21:00,47.3,37.7,30.14,SW,225,0.4,1.8,69,0.00,,,0.00,WUHU216HW,2013-03-10 14:21:00,
2013-03-10 10:26:00,47.7,37.6,30.15,WSW,248,1.3,2.2,68,0.00,,,0.00,WUHU216HW,2013-03-10 14:26:00,
2013-03-10 10:31:00,47.9,37.8,30.14,WSW,248,0.0,2.2,68,0.00,,,0.00,WUHU216HW,2013-03-10 14:31:00,
2013-03-10 10:36:00,48.4,38.4,30.14,WSW,248,0.0,1.8,68,0.00,,,0.00,WUHU216HW,2013-03-10 14:36:00,
2013-03-10 10:41:00,49.1,38.3,30.14,WSW,248,0.2,0.7,66,0.00,,,0.00,WUHU216HW,2013-03-10 14:41:00,
2013-03-10 10:46:00,49.7,38.0,30.14,NNW,338,1.3,1.3,64,0.00,,,0.00,WUHU216HW,2013-03-10 14:46:00,
2013-03-10 10:51:00,50.4,38.6,30.14,SW,225,1.3,1.3,64,0.00,,,0.00,WUHU216HW,2013-03-10 14:51:00,
2013-03-10 10:56:00,50.9,38.7,30.14,SSE,158,0.2,1.6,63,0.00,,,0.00,WUHU216HW,2013-03-10 14:56:00,
2013-03-10 11:01:00,51.5,39.2,30.14,WSW,248,0.2,1.6,63,0.00,,,0.00,WUHU216HW,2013-03-10 15:01:00,
2013-03-10 11:06:00,52.4,39.7,30.14,SE,135,0.4,1.6,62,0.00,,,0.00,WUHU216HW,2013-03-10 15:06:00,
2013-03-10 11:11:00,52.9,39.4,30.14,SSW,203,0.0,2.9,60,0.00,,,0.00,WUHU216HW,2013-03-10 15:11:00,
2013-03-10 11:16:00,53.8,39.9,30.14,SSW,203,0.9,2.9,59,0.00,,,0.00,WUHU216HW,2013-03-10 15:16:00,
2013-03-10 11:21:00,54.5,40.1,30.14,SSW,203,0.4,1.1,58,0.00,,,0.00,WUHU216HW,2013-03-10 15:21:00,
2013-03-10 11:26:00,55.4,40.3,30.14,SW,225,0.0,1.1,57,0.00,,,0.00,WUHU216HW,2013-03-10 15:26:00,
2013-03-10 11:31:00,56.2,41.0,30.14,NW,315,0.0,2.5,57,0.00,,,0.00,WUHU216HW,2013-03-10 15:31:00,
2013-03-10 11:36:00,57.1,41.0,30.14,SSE,158,4.3,4.3,55,0.00,,,0.00,WUHU216HW,2013-03-10 15:36:00,
2013-03-10 11:41:00,58.0,41.9,30.14,SSW,203,2.0,4.3,55,0.00,,,0.00,WUHU216HW,2013-03-10 15:41:00,
2013-03-10 11:46:00,58.7,40.7,30.13,SSW,203,3.1,5.1,51,0.00,,,0.00,WUHU216HW,2013-03-10 15:46:00,
2013-03-10 11:51:00,58.9,41.3,30.13,SW,225,1.6,5.1,52,0.00,,,0.00,WUHU216HW,2013-03-10 15:51:00,
2013-03-10 11:56:00,59.2,41.1,30.13,WSW,248,1.1,3.6,51,0.00,,,0.00,WUHU216HW,2013-03-10 15:56:00,
2013-03-10 12:01:00,59.8,41.6,30.13,WSW,248,0.7,2.7,51,0.00,,,0.00,WUHU216HW,2013-03-10 16:01:00,
2013-03-10 12:06:00,60.1,40.3,30.13,SSW,203,3.1,4.9,48,0.00,,,0.00,WUHU216HW,2013-03-10 16:06:00,
2013-03-10 12:11:00,60.3,40.5,30.13,South,180,3.8,4.9,48,0.00,,,0.00,WUHU216HW,2013-03-10 16:11:00,
2013-03-10 12:16:00,60.5,41.2,30.12,WNW,293,0.4,3.8,49,0.00,,,0.00,WUHU216HW,2013-03-10 16:16:00,
2013-03-10 12:21:00,60.8,39.2,30.12,ENE,68,1.1,3.6,45,0.00,,,0.00,WUHU216HW,2013-03-10 16:21:00,
2013-03-10 12:26:00,61.0,40.0,30.12,NNE,23,1.1,3.6,46,0.00,,,0.00,WUHU216HW,2013-03-10 16:26:00,
2013-03-10 12:31:00,61.2,39.6,30.11,SSW,203,1.1,2.0,45,0.00,,,0.00,WUHU216HW,2013-03-10 16:31:00,
2013-03-10 12:36:00,61.6,38.7,30.11,NE,45,0.7,4.7,43,0.00,,,0.00,WUHU216HW,2013-03-10 16:36:00,
2013-03-10 12:41:00,61.9,39.6,30.11,SSW,203,2.7,4.7,44,0.00,,,0.00,WUHU216HW,2013-03-10 16:41:00,
2013-03-10 12:46:00,62.6,40.3,30.11,SSW,203,0.4,3.4,44,0.00,,,0.00,WUHU216HW,2013-03-10 16:46:00,
2013-03-10 12:51:00,63.4,39.8,30.11,SW,225,1.8,3.6,42,0.00,,,0.00,WUHU216HW,2013-03-10 16:51:00,
2013-03-10 12:56:00,64.1,40.4,30.11,North,0,0.4,3.6,42,0.00,,,0.00,WUHU216HW,2013-03-10 16:56:00,
2013-03-10 13:01:00,64.6,40.3,30.11,South,180,2.0,2.9,41,0.00,,,0.00,WUHU216HW,2013-03-10 17:01:00,
2013-03-10 13:06:00,65.5,40.6,30.10,SSW,203,1.6,4.9,40,0.00,,,0.00,WUHU216HW,2013-03-10 17:06:00,
2013-03-10 13:11:00,65.9,39.4,30.10,SSW,203,0.9,5.4,38,0.00,,,0.00,WUHU216HW,2013-03-10 17:11:00,
2013-03-10 13:16:00,66.2,41.2,30.10,NE,45,2.7,5.4,40,0.00,,,0.00,WUHU216HW,2013-03-10 17:16:00,
2013-03-10 13:21:00,66.8,41.0,30.09,East,90,0.7,6.3,39,0.00,,,0.00,WUHU216HW,2013-03-10 17:21:00,
2013-03-10 13:26:00,67.3,42.2,30.09,South,180,0.2,6.3,40,0.00,,,0.00,WUHU216HW,2013-03-10 17:26:00,
2013-03-10 13:31:00,67.7,41.8,30.09,SSW,203,2.9,4.7,39,0.00,,,0.00,WUHU216HW,2013-03-10 17:31:00,
2013-03-10 13:36:00,67.5,41.6,30.09,East,90,0.7,3.6,39,0.00,,,0.00,WUHU216HW,2013-03-10 17:36:00,
2013-03-10 13:41:00,67.3,40.0,30.09,NE,45,2.5,4.7,37,0.00,,,0.00,WUHU216HW,2013-03-10 17:41:00,
2013-03-10 13:46:00,67.1,39.9,30.09,North,0,4.5,4.7,37,0.00,,,0.00,WUHU216HW,2013-03-10 17:46:00,
2013-03-10 13:51:00,66.4,37.1,30.09,NNE,23,0.7,6.3,34,0.00,,,0.00,WUHU216HW,2013-03-10 17:51:00,
2013-03-10 13:56:00,66.4,39.3,30.09,SSW,203,1.1,6.3,37,0.00,,,0.00,WUHU216HW,2013-03-10 17:56:00,
2013-03-10 14:01:00,67.0,39.7,30.09,North,0,2.9,2.9,37,0.00,,,0.00,WUHU216HW,2013-03-10 18:01:00,
2013-03-10 14:06:00,67.3,40.8,30.09,SW,225,1.8,2.9,38,0.00,,,0.00,WUHU216HW,2013-03-10 18:06:00,
2013-03-10 14:11:00,67.7,41.0,30.09,East,90,1.1,3.6,38,0.00,,,0.00,WUHU216HW,2013-03-10 18:11:00,
2013-03-10 14:16:00,68.0,40.6,30.08,SSW,203,3.4,3.8,37,0.00,,,0.00,WUHU216HW,2013-03-10 18:16:00,
2013-03-10 14:21:00,68.6,41.1,30.07,North,0,0.7,4.5,37,0.00,,,0.00,WUHU216HW,2013-03-10 18:21:00,
2013-03-10 14:26:00,68.9,41.4,30.07,SW,225,0.4,4.9,37,0.00,,,0.00,WUHU216HW,2013-03-10 18:26:00,
2013-03-10 14:31:00,69.3,41.8,30.07,South,180,2.5,4.9,37,0.00,,,0.00,WUHU216HW,2013-03-10 18:31:00,
2013-03-10 14:36:00,69.5,40.4,30.06,SSW,203,2.0,3.4,35,0.00,,,0.00,WUHU216HW,2013-03-10 18:36:00,
2013-03-10 14:41:00,69.5,39.7,30.06,SSW,203,3.6,6.0,34,0.00,,,0.00,WUHU216HW,2013-03-10 18:41:00,
2013-03-10 14:46:00,69.5,39.7,30.06,SSW,203,4.7,6.5,34,0.00,,,0.00,WUHU216HW,2013-03-10 18:46:00,
2013-03-10 14:51:00,69.8,40.8,30.06,SSW,203,0.4,6.5,35,0.00,,,0.00,WUHU216HW,2013-03-10 18:51:00,
2013-03-10 14:56:00,70.2,41.1,30.05,NW,315,0.7,5.4,35,0.00,,,0.00,WUHU216HW,2013-03-10 18:56:00,
2013-03-10 15:01:00,70.0,41.0,30.05,WSW,248,0.2,5.4,35,0.00,,,0.00,WUHU216HW,2013-03-10 19:01:00,
2013-03-10 15:06:00,70.0,41.0,30.06,SW,225,0.9,2.0,35,0.00,,,0.00,WUHU216HW,2013-03-10 19:06:00,
2013-03-10 15:11:00,70.2,40.3,30.06,North,0,0.9,2.0,34,0.00,,,0.00,WUHU216HW,2013-03-10 19:11:00,
2013-03-10 15:16:00,70.2,40.3,30.06,SW,225,1.8,4.0,34,0.00,,,0.00,WUHU216HW,2013-03-10 19:16:00,
2013-03-10 15:21:00,70.6,40.0,30.05,SSW,203,2.7,5.8,33,0.00,,,0.00,WUHU216HW,2013-03-10 19:21:00,
2013-03-10 15:26:00,70.6,39.3,30.05,SSW,203,1.3,9.8,32,0.00,,,0.00,WUHU216HW,2013-03-10 19:26:00,
2013-03-10 15:31:00,70.7,40.2,30.05,ESE,113,0.4,9.8,33,0.00,,,0.00,WUHU216HW,2013-03-10 19:31:00,
2013-03-10 15:36:00,70.9,38.8,30.05,NE,45,1.6,4.7,31,0.00,,,0.00,WUHU216HW,2013-03-10 19:36:00,
2013-03-10 15:41:00,70.7,39.3,30.05,SSW,203,1.1,4.7,32,0.00,,,0.00,WUHU216HW,2013-03-10 19:41:00,
2013-03-10 15:46:00,70.9,39.5,30.05,South,180,1.1,4.3,32,0.00,,,0.00,WUHU216HW,2013-03-10 19:46:00,
2013-03-10 15:51:00,71.1,39.7,30.04,West,270,0.9,4.3,32,0.00,,,0.00,WUHU216HW,2013-03-10 19:51:00,
2013-03-10 15:56:00,71.6,39.4,30.04,SW,225,4.7,7.4,31,0.00,,,0.00,WUHU216HW,2013-03-10 19:56:00,
2013-03-10 16:01:00,71.3,39.9,30.05,SW,225,0.7,7.4,32,0.00,,,0.00,WUHU216HW,2013-03-10 20:01:00,
2013-03-10 16:06:00,70.7,39.3,30.04,NNW,338,1.1,6.3,32,0.00,,,0.00,WUHU216HW,2013-03-10 20:06:00,
2013-03-10 16:11:00,69.8,38.5,30.04,WNW,293,0.9,2.0,32,0.00,,,0.00,WUHU216HW,2013-03-10 20:11:00,
2013-03-10 16:16:00,69.5,38.3,30.04,WSW,248,0.7,2.7,32,0.00,,,0.00,WUHU216HW,2013-03-10 20:16:00,
2013-03-10 16:21:00,69.5,38.3,30.04,NNE,23,0.9,2.7,32,0.00,,,0.00,WUHU216HW,2013-03-10 20:21:00,
2013-03-10 16:26:00,69.5,39.0,30.04,SSW,203,1.3,3.4,33,0.00,,,0.00,WUHU216HW,2013-03-10 20:26:00,
2013-03-10 16:32:00,69.7,39.2,30.04,South,180,1.1,3.4,33,0.00,,,0.00,WUHU216HW,2013-03-10 20:32:00,
2013-03-10 16:37:00,70.0,40.2,30.04,NNE,23,0.7,2.5,34,0.00,,,0.00,WUHU216HW,2013-03-10 20:37:00,
2013-03-10 16:42:00,70.0,40.2,30.03,SE,135,0.2,5.8,34,0.00,,,0.00,WUHU216HW,2013-03-10 20:42:00,
2013-03-10 16:47:00,70.0,39.4,30.04,ENE,68,0.7,5.8,33,0.00,,,0.00,WUHU216HW,2013-03-10 20:47:00,
2013-03-10 16:52:00,69.8,40.1,30.04,WNW,293,1.3,3.6,34,0.00,,,0.00,WUHU216HW,2013-03-10 20:52:00,
2013-03-10 16:57:00,69.7,39.2,30.04,SSW,203,7.2,8.7,33,0.00,,,0.00,WUHU216HW,2013-03-10 20:57:00,
2013-03-10 17:02:00,69.1,38.6,30.04,WNW,293,1.1,8.7,33,0.00,,,0.00,WUHU216HW,2013-03-10 21:02:00,
2013-03-10 17:07:00,68.6,38.9,30.03,SSE,158,1.8,7.2,34,0.00,,,0.00,WUHU216HW,2013-03-10 21:07:00,
2013-03-10 17:12:00,68.8,39.8,30.03,ENE,68,0.9,2.2,35,0.00,,,0.00,WUHU216HW,2013-03-10 21:12:00,
2013-03-10 17:17:00,68.6,39.6,30.03,SW,225,2.2,3.4,35,0.00,,,0.00,WUHU216HW,2013-03-10 21:17:00,
2013-03-10 17:22:00,68.8,39.8,30.03,NNW,338,1.3,6.5,35,0.00,,,0.00,WUHU216HW,2013-03-10 21:22:00,
2013-03-10 17:27:00,69.1,40.2,30.03,SE,135,1.8,6.5,35,0.00,,,0.00,WUHU216HW,2013-03-10 21:27:00,
2013-03-10 17:32:00,69.5,40.4,30.03,NW,315,0.4,2.7,35,0.00,,,0.00,WUHU216HW,2013-03-10 21:32:00,
2013-03-10 17:37:00,69.8,40.8,30.02,ESE,113,2.0,2.7,35,0.00,,,0.00,WUHU216HW,2013-03-10 21:37:00,
2013-03-10 17:42:00,70.0,40.2,30.02,NW,315,1.3,3.8,34,0.00,,,0.00,WUHU216HW,2013-03-10 21:42:00,
2013-03-10 17:47:00,70.2,40.3,30.02,SSW,203,4.9,4.9,34,0.00,,,0.00,WUHU216HW,2013-03-10 21:47:00,
2013-03-10 17:52:00,70.4,40.5,30.02,South,180,2.5,7.2,34,0.00,,,0.00,WUHU216HW,2013-03-10 21:52:00,
2013-03-10 17:57:00,70.7,40.9,30.03,NW,315,1.1,7.2,34,0.00,,,0.00,WUHU216HW,2013-03-10 21:57:00,
2013-03-10 18:02:00,70.2,40.3,30.02,SW,225,1.1,3.1,34,0.00,,,0.00,WUHU216HW,2013-03-10 22:02:00,
2013-03-10 18:07:00,69.1,39.4,30.02,SW,225,0.2,2.7,34,0.00,,,0.00,WUHU216HW,2013-03-10 22:07:00,
2013-03-10 18:12:00,68.2,39.3,30.03,SE,135,0.2,1.8,35,0.00,,,0.00,WUHU216HW,2013-03-10 22:12:00,
2013-03-10 18:17:00,67.7,38.9,30.03,South,180,0.4,1.6,35,0.00,,,0.00,WUHU216HW,2013-03-10 22:17:00,
2013-03-10 18:22:00,67.0,38.3,30.02,South,180,0.0,1.1,35,0.00,,,0.00,WUHU216HW,2013-03-10 22:22:00,
2013-03-10 18:27:00,66.4,37.8,30.02,SSW,203,0.0,1.1,35,0.00,,,0.00,WUHU216HW,2013-03-10 22:27:00,
2013-03-10 18:32:00,66.1,38.2,30.02,SW,225,0.0,1.1,36,0.00,,,0.00,WUHU216HW,2013-03-10 22:32:00,
2013-03-10 18:37:00,65.5,37.7,30.02,SSW,203,0.0,1.1,36,0.00,,,0.00,WUHU216HW,2013-03-10 22:37:00,
2013-03-10 18:42:00,65.3,37.5,30.02,SW,225,0.2,0.4,36,0.00,,,0.00,WUHU216HW,2013-03-10 22:42:00,
2013-03-10 18:47:00,65.2,37.4,30.03,SW,225,0.0,0.4,36,0.00,,,0.00,WUHU216HW,2013-03-10 22:47:00,
2013-03-10 18:52:00,64.8,37.8,30.03,SW,225,0.0,0.4,37,0.00,,,0.00,WUHU216HW,2013-03-10 22:52:00,
2013-03-10 18:57:00,64.6,37.6,30.03,SW,225,0.4,0.4,37,0.00,,,0.00,WUHU216HW,2013-03-10 22:57:00,
2013-03-10 19:02:00,64.1,37.1,30.03,SW,225,0.0,0.4,37,0.00,,,0.00,WUHU216HW,2013-03-10 23:02:00,
2013-03-10 19:07:00,63.5,36.6,30.03,SW,225,0.4,0.9,37,0.00,,,0.00,WUHU216HW,2013-03-10 23:07:00,
2013-03-10 19:12:00,63.0,36.2,30.03,SSW,203,0.4,0.9,37,0.00,,,0.00,WUHU216HW,2013-03-10 23:12:00,
2013-03-10 19:17:00,62.5,36.4,30.02,ENE,68,0.4,1.1,38,0.00,,,0.00,WUHU216HW,2013-03-10 23:17:00,
2013-03-10 19:22:00,61.9,36.6,30.03,ENE,68,0.0,1.1,39,0.00,,,0.00,WUHU216HW,2013-03-10 23:22:00,
2013-03-10 19:27:00,61.4,36.1,30.03,ENE,68,0.0,0.4,39,0.00,,,0.00,WUHU216HW,2013-03-10 23:27:00,
2013-03-10 19:33:00,61.0,35.8,30.03,ENE,68,0.0,0.4,39,0.00,,,0.00,WUHU216HW,2013-03-10 23:33:00,
2013-03-10 19:38:00,60.5,36.0,30.03,ENE,68,0.7,1.6,40,0.00,,,0.00,WUHU216HW,2013-03-10 23:38:00,
2013-03-10 19:43:00,60.1,35.7,30.02,ENE,68,0.7,1.6,40,0.00,,,0.00,WUHU216HW,2013-03-10 23:43:00,
2013-03-10 19:48:00,59.8,36.0,30.03,ENE,68,0.0,0.9,41,0.00,,,0.00,WUHU216HW,2013-03-10 23:48:00,
2013-03-10 19:53:00,59.4,35.6,30.03,ENE,68,0.4,0.7,41,0.00,,,0.00,WUHU216HW,2013-03-10 23:53:00,
2013-03-10 19:58:00,59.0,35.3,30.03,ENE,68,0.0,0.4,41,0.00,,,0.00,WUHU216HW,2013-03-10 23:58:00,
2013-03-10 20:03:00,58.7,35.6,30.04,ENE,68,0.0,0.4,42,0.00,,,0.00,WUHU216HW,2013-03-11 00:03:00,
2013-03-10 20:08:00,58.1,35.1,30.03,ENE,68,0.0,0.2,42,0.00,,,0.00,WUHU216HW,2013-03-11 00:08:00,
2013-03-10 20:13:00,58.0,35.5,30.04,ENE,68,0.0,0.2,43,0.00,,,0.00,WUHU216HW,2013-03-11 00:13:00,
2013-03-10 20:18:00,57.6,35.2,30.04,ENE,68,0.0,0.0,43,0.00,,,0.00,WUHU216HW,2013-03-11 00:18:00,
2013-03-10 20:23:00,57.2,34.8,30.04,ENE,68,0.0,0.0,43,0.00,,,0.00,WUHU216HW,2013-03-11 00:23:00,
2013-03-10 20:28:00,57.1,35.3,30.04,ENE,68,0.0,0.4,44,0.00,,,0.00,WUHU216HW,2013-03-11 00:28:00,
2013-03-10 20:33:00,56.9,35.1,30.04,ENE,68,0.4,0.4,44,0.00,,,0.00,WUHU216HW,2013-03-11 00:33:00,
2013-03-10 20:38:00,56.7,35.5,30.04,ENE,68,0.4,0.7,45,0.00,,,0.00,WUHU216HW,2013-03-11 00:38:00,
2013-03-10 20:43:00,56.5,35.9,30.04,ENE,68,0.4,0.9,46,0.00,,,0.00,WUHU216HW,2013-03-11 00:43:00,
2013-03-10 20:48:00,56.3,35.7,30.04,ENE,68,1.1,1.1,46,0.00,,,0.00,WUHU216HW,2013-03-11 00:48:00,
2013-03-10 20:53:00,56.2,35.6,30.03,ENE,68,0.0,1.1,46,0.00,,,0.00,WUHU216HW,2013-03-11 00:53:00,
2013-03-10 20:58:00,55.8,35.2,30.03,ENE,68,0.2,1.1,46,0.00,,,0.00,WUHU216HW,2013-03-11 00:58:00,
2013-03-10 21:03:00,55.6,35.6,30.03,ENE,68,0.4,0.9,47,0.00,,,0.00,WUHU216HW,2013-03-11 01:03:00,
2013-03-10 21:08:00,55.4,35.4,30.03,ENE,68,0.0,0.9,47,0.00,,,0.00,WUHU216HW,2013-03-11 01:08:00,
2013-03-10 21:13:00,55.1,35.1,30.03,ENE,68,0.4,1.1,47,0.00,,,0.00,WUHU216HW,2013-03-11 01:13:00,
2013-03-10 21:18:00,54.7,35.3,30.03,ENE,68,0.0,1.1,48,0.00,,,0.00,WUHU216HW,2013-03-11 01:18:00,
2013-03-10 21:23:00,54.4,34.5,30.03,ENE,68,0.0,0.7,47,0.00,,,0.00,WUHU216HW,2013-03-11 01:23:00,
2013-03-10 21:28:00,54.2,34.3,30.03,ENE,68,0.0,0.0,47,0.00,,,0.00,WUHU216HW,2013-03-11 01:28:00,
2013-03-10 21:33:00,54.0,34.1,30.04,ENE,68,0.0,0.0,47,0.00,,,0.00,WUHU216HW,2013-03-11 01:33:00,
2013-03-10 21:38:00,53.6,33.8,30.04,ENE,68,0.0,0.0,47,0.00,,,0.00,WUHU216HW,2013-03-11 01:38:00,
2013-03-10 21:43:00,53.5,34.2,30.04,ENE,68,0.0,0.0,48,0.00,,,0.00,WUHU216HW,2013-03-11 01:43:00,
2013-03-10 21:48:00,53.5,34.2,30.04,ENE,68,0.0,0.0,48,0.00,,,0.00,WUHU216HW,2013-03-11 01:48:00,
2013-03-10 21:53:00,53.3,34.0,30.04,ENE,68,0.0,0.0,48,0.00,,,0.00,WUHU216HW,2013-03-11 01:53:00,
2013-03-10 21:58:00,52.9,34.3,30.04,ENE,68,0.0,0.4,49,0.00,,,0.00,WUHU216HW,2013-03-11 01:58:00,
2013-03-10 22:03:00,52.7,34.7,30.04,ENE,68,0.4,0.4,50,0.00,,,0.00,WUHU216HW,2013-03-11 02:03:00,
2013-03-10 22:08:00,52.6,34.9,30.04,ENE,68,0.2,1.1,51,0.00,,,0.00,WUHU216HW,2013-03-11 02:08:00,
2013-03-10 22:13:00,52.6,34.9,30.04,ENE,68,0.2,1.1,51,0.00,,,0.00,WUHU216HW,2013-03-11 02:13:00,
2013-03-10 22:18:00,52.6,34.9,30.04,ENE,68,0.0,0.4,51,0.00,,,0.00,WUHU216HW,2013-03-11 02:18:00,
2013-03-10 22:23:00,52.6,34.9,30.04,ENE,68,0.0,0.2,51,0.00,,,0.00,WUHU216HW,2013-03-11 02:23:00,
2013-03-10 22:28:00,52.4,34.7,30.04,ENE,68,0.7,0.7,51,0.00,,,0.00,WUHU216HW,2013-03-11 02:28:00,
2013-03-10 22:33:00,52.4,34.7,30.04,ENE,68,0.0,0.7,51,0.00,,,0.00,WUHU216HW,2013-03-11 02:33:00,
2013-03-10 22:38:00,52.0,34.9,30.04,ENE,68,0.2,0.7,52,0.00,,,0.00,WUHU216HW,2013-03-11 02:38:00,
2013-03-10 22:43:00,51.5,34.4,30.04,ENE,68,0.0,0.4,52,0.00,,,0.00,WUHU216HW,2013-03-11 02:43:00,
2013-03-10 22:48:00,51.3,34.8,30.04,ENE,68,0.2,0.4,53,0.00,,,0.00,WUHU216HW,2013-03-11 02:48:00,
2013-03-10 22:53:00,51.1,35.0,30.04,ENE,68,0.4,0.9,54,0.00,,,0.00,WUHU216HW,2013-03-11 02:53:00,
2013-03-10 22:59:00,51.1,35.0,30.04,East,90,0.0,0.9,54,0.00,,,0.00,WUHU216HW,2013-03-11 02:59:00,
2013-03-10 23:04:00,51.1,34.6,30.04,East,90,0.2,0.7,53,0.00,,,0.00,WUHU216HW,2013-03-11 03:04:00,
2013-03-10 23:09:00,51.1,35.0,30.03,East,90,0.0,0.4,54,0.00,,,0.00,WUHU216HW,2013-03-11 03:09:00,
2013-03-10 23:14:00,51.1,34.6,30.04,ESE,113,0.0,0.4,53,0.00,,,0.00,WUHU216HW,2013-03-11 03:14:00,
2013-03-10 23:19:00,51.1,34.6,30.04,East,90,0.2,0.4,53,0.00,,,0.00,WUHU216HW,2013-03-11 03:19:00,
2013-03-10 23:24:00,50.9,34.4,30.04,ENE,68,0.0,1.1,53,0.00,,,0.00,WUHU216HW,2013-03-11 03:24:00,
2013-03-10 23:29:00,50.9,34.8,30.03,SW,225,0.0,1.1,54,0.00,,,0.00,WUHU216HW,2013-03-11 03:29:00,
2013-03-10 23:34:00,50.8,34.7,30.03,SW,225,0.0,1.1,54,0.00,,,0.00,WUHU216HW,2013-03-11 03:34:00,
2013-03-10 23:39:00,50.8,34.7,30.03,North,0,0.0,0.4,54,0.00,,,0.00,WUHU216HW,2013-03-11 03:39:00,
2013-03-10 23:44:00,50.8,34.7,30.03,North,0,0.0,0.4,54,0.00,,,0.00,WUHU216HW,2013-03-11 03:44:00,
2013-03-10 23:49:00,50.4,34.8,30.03,North,0,0.0,0.4,55,0.00,,,0.00,WUHU216HW,2013-03-11 03:49:00,
2013-03-10 23:54:00,50.4,34.8,30.04,ENE,68,0.4,0.4,55,0.00,,,0.00,WUHU216HW,2013-03-11 03:54:00,
2013-03-10 23:59:00,50.2,34.7,30.04,ENE,68,0.0,0.4,55,0.00,,,0.00,WUHU216HW,2013-03-11 03:59:00,